Home > Time Zones > World Clock > Weather > U.S.A. > Napa > Past weeks

Flag for U.S.A. Weather past 2 weeks in Napa, California, U.S.A.

Now
42 °F

Clear.


Feels Like: 38 °F
Forecast: 43 / 64 °F
Wind: 7 mph from North

Location: Napa County Airport

Current Time: Jan 29, 2015 at 5:16:32 AM

Latest Report: Jan 29, 2015 at 4:54 AM


Visibility: 10 mi

Pressure: 30.11 "Hg

Humidity: 96%

Dew point: 41 °F

Location of NapaLocation

Historic Weather in Napa — Graph

°F

Napa temperature yesterday

Maximum temperature yesterday: 64 °F (at 2:54 PM)
Minimum temperature yesterday: 43 °F (at 7:54 AM)
Average temperature yesterday: 51 °F

Past Weeks' High & Low Weather Summary

 TemperatureHumidityPressure
High64 °F (Jan 28, 2:54 PM)100% (Jan 14, 8:54 PM)30.36 "Hg (Jan 14, 8:54 PM)
Low33 °F (Jan 21, 4:54 AM)56% (Jan 28, 2:54 PM)29.93 "Hg (Jan 26, 2:54 PM)
Average48 °F90%30.18 "Hg
* Reported Jan 14 3:54 AM — Jan 29 3:54 AM, Napa, Weather by CustomWeather, © 2014

Note: Actual official high and low records may vary slightly from our data, if they occured in-between our weather recording intervals... More about our weather records

Advertising

Napa weather history for previous 24 hours

 ConditionsComfort  
Time TempWeatherWind HumidityBarometerVisibility
3:54 AM
Jan 29
41 °FClear.3 mph100%30.12 "Hg10 mi
2:54 AM41 °FFog.No wind100%30.14 "Hg3 mi
1:54 AM44 °FClear.3 mph96%30.14 "Hg10 mi
12:54 AM44 °FClear.3 mph96%30.14 "Hg10 mi
11:54 PM
Jan 28
44 °FClear.No wind96%30.14 "Hg10 mi
10:54 PM43 °FClear.No wind100%30.14 "Hg10 mi
9:54 PM47 °FClear.3 mph93%30.14 "Hg10 mi
8:54 PM46 °FClear.No wind93%30.14 "Hg10 mi
7:54 PM50 °FClear.3 mph89%30.14 "Hg10 mi
6:54 PM53 °FClear.6 mph83%30.14 "Hg10 mi
5:54 PM55 °FClear.6 mph80%30.13 "Hg10 mi
4:54 PM60 °FSunny.5 mph72%30.12 "Hg10 mi
3:54 PM62 °FSunny.6 mph67%30.13 "Hg10 mi
2:54 PM64 °FSunny.5 mph56%30.14 "Hg10 mi
1:54 PM63 °FSunny.5 mph60%30.15 "Hg10 mi
12:54 PM61 °FSunny.3 mph65%30.18 "Hg10 mi
11:54 AM59 °FSunny.5 mph69%30.21 "Hg10 mi
10:54 AM57 °FSunny.No wind78%30.24 "Hg10 mi
9:54 AM55 °FSunny.No wind83%30.24 "Hg10 mi
8:54 AM51 °FSunny.No wind92%30.24 "Hg8 mi
7:54 AM43 °FSunny.No wind100%30.23 "Hg8 mi
6:54 AM45 °FClear.No wind97%30.23 "Hg8 mi
5:54 AM46 °FClear.No wind100%30.23 "Hg7 mi
Weather by CustomWeather, © 2014

See weather overviewHow to use our weather pages